Location: Unspecified
(0.0000°N, 0.0000°E)
Time: 09:19:05
(UTC+00:00)

deb Briz - Pass Details

Date: 23 February 2026
Orbit: 1949 x 2166 km, 64.8° (Epoch: 9 March)

Event Time Altitude Azimuth Distance (km) Brightness Sun altitude
Rises 04:06:24 0° 347° (NNW) 5,575 ? -31.2°
Reaches altitude 10° 04:09:50 10° 350° (N) 4,598 ? -30.4°
Maximum altitude 04:21:46 64° 70° (ENE) 2,337 ? -27.5°
Drops below altitude 10° 04:33:54 10° 148° (SSE) 4,685 ? -24.5°
Sets 04:37:24 0° 151° (SSE) 5,685 ? -23.6°
